Year,Month,Day,Hour,Minute,Value (Times are PST for temperature in C)
2016,09,22,00,00,9.70
2016,09,22,00,01,9.70
2016,09,22,00,02,9.70
2016,09,22,00,03,9.70
2016,09,22,00,04,9.60
2016,09,22,00,05,9.60
2016,09,22,00,06,9.60
2016,09,22,00,07,9.60
2016,09,22,00,08,9.60
2016,09,22,00,09,9.60
2016,09,22,00,10,9.60
2016,09,22,00,11,9.60
2016,09,22,00,12,9.60
2016,09,22,00,13,9.60
2016,09,22,00,14,9.60
2016,09,22,00,15,9.60
2016,09,22,00,16,9.60
2016,09,22,00,17,9.60
2016,09,22,00,18,9.60
2016,09,22,00,19,9.60
2016,09,22,00,20,9.60
2016,09,22,00,21,9.60
2016,09,22,00,22,9.60
2016,09,22,00,23,9.60
2016,09,22,00,24,9.60
2016,09,22,00,25,9.50
2016,09,22,00,26,9.50
2016,09,22,00,27,9.50
2016,09,22,00,28,9.50
2016,09,22,00,29,9.50
2016,09,22,00,30,9.50
2016,09,22,00,31,9.40
2016,09,22,00,32,9.40
2016,09,22,00,33,9.40
2016,09,22,00,34,9.40
2016,09,22,00,35,9.40
2016,09,22,00,36,9.40
2016,09,22,00,37,9.40
2016,09,22,00,38,9.40
2016,09,22,00,39,9.40
2016,09,22,00,40,9.40
2016,09,22,00,41,9.40
2016,09,22,00,42,9.40
2016,09,22,00,43,9.40
2016,09,22,00,44,9.40
2016,09,22,00,45,9.40
2016,09,22,00,46,9.40
2016,09,22,00,47,9.40
2016,09,22,00,48,9.30
2016,09,22,00,49,9.30
2016,09,22,00,50,9.30
2016,09,22,00,51,9.30
2016,09,22,00,52,9.30
2016,09,22,00,53,9.30
2016,09,22,00,54,9.30
2016,09,22,00,55,9.30
2016,09,22,00,56,9.30
2016,09,22,00,57,9.30
2016,09,22,00,58,9.30
2016,09,22,00,59,9.30
2016,09,22,01,00,9.20
2016,09,22,01,01,9.20
2016,09,22,01,02,9.20
2016,09,22,01,03,9.20
2016,09,22,01,04,9.20
2016,09,22,01,05,9.20
2016,09,22,01,06,9.20
2016,09,22,01,07,9.20
2016,09,22,01,08,9.20
2016,09,22,01,09,9.20
2016,09,22,01,10,9.10
2016,09,22,01,11,9.10
2016,09,22,01,12,9.10
2016,09,22,01,13,9.10
2016,09,22,01,14,9.10
2016,09,22,01,15,9.10
2016,09,22,01,16,9.10
2016,09,22,01,17,9.10
2016,09,22,01,18,9.10
2016,09,22,01,19,9.10
2016,09,22,01,20,9.10
2016,09,22,01,21,9.10
2016,09,22,01,22,9.10
2016,09,22,01,23,9.10
2016,09,22,01,24,9.10
2016,09,22,01,25,9.10
2016,09,22,01,26,9.10
2016,09,22,01,27,9.00
2016,09,22,01,28,9.00
2016,09,22,01,29,9.00
2016,09,22,01,30,9.00
2016,09,22,01,31,8.90
2016,09,22,01,32,8.90
2016,09,22,01,33,8.90
2016,09,22,01,34,8.90
2016,09,22,01,35,8.90
2016,09,22,01,36,8.90
2016,09,22,01,37,8.80
2016,09,22,01,38,8.80
2016,09,22,01,39,8.80
2016,09,22,01,40,8.80
2016,09,22,01,41,8.80
2016,09,22,01,42,8.80
2016,09,22,01,43,8.80
2016,09,22,01,44,8.80
2016,09,22,01,45,8.80
2016,09,22,01,46,8.80
2016,09,22,01,47,8.80
2016,09,22,01,48,8.80
2016,09,22,01,49,8.80
2016,09,22,01,50,8.80
2016,09,22,01,51,8.80
2016,09,22,01,52,8.80
2016,09,22,01,53,8.80
2016,09,22,01,54,8.80
2016,09,22,01,55,8.80
2016,09,22,01,56,8.80
2016,09,22,01,57,8.80
2016,09,22,01,58,8.80
2016,09,22,01,59,8.80
2016,09,22,02,00,8.80
2016,09,22,02,01,8.80
2016,09,22,02,02,8.80
2016,09,22,02,03,8.80
2016,09,22,02,04,8.80
2016,09,22,02,05,8.80
2016,09,22,02,06,8.80
2016,09,22,02,07,8.70
2016,09,22,02,08,8.70
2016,09,22,02,09,8.70
2016,09,22,02,10,8.70
2016,09,22,02,11,8.60
2016,09,22,02,12,8.60
2016,09,22,02,13,8.60
2016,09,22,02,14,8.60
2016,09,22,02,15,8.60
2016,09,22,02,16,8.60
2016,09,22,02,17,8.60
2016,09,22,02,18,8.60
2016,09,22,02,19,8.60
2016,09,22,02,20,8.60
2016,09,22,02,21,8.60
2016,09,22,02,22,8.60
2016,09,22,02,23,8.60
2016,09,22,02,24,8.60
2016,09,22,02,25,8.50
2016,09,22,02,26,8.50
2016,09,22,02,27,8.50
2016,09,22,02,28,8.40
2016,09,22,02,29,8.40
2016,09,22,02,30,8.40
2016,09,22,02,31,8.40
2016,09,22,02,32,8.40
2016,09,22,02,33,8.40
2016,09,22,02,34,8.40
2016,09,22,02,35,8.40
2016,09,22,02,36,8.30
2016,09,22,02,37,8.30
2016,09,22,02,38,8.40
2016,09,22,02,39,8.40
2016,09,22,02,40,8.40
2016,09,22,02,41,8.40
2016,09,22,02,42,8.40
2016,09,22,02,43,8.30
2016,09,22,02,44,8.30
2016,09,22,02,45,8.30
2016,09,22,02,46,8.30
2016,09,22,02,47,8.30
2016,09,22,02,48,8.30
2016,09,22,02,49,8.30
2016,09,22,02,50,8.30
2016,09,22,02,51,8.30
2016,09,22,02,52,8.30
2016,09,22,02,53,8.30
2016,09,22,02,54,8.30
2016,09,22,02,55,8.30
2016,09,22,02,56,8.30
2016,09,22,02,57,8.20
2016,09,22,02,58,8.20
2016,09,22,02,59,8.20
2016,09,22,03,00,8.20
2016,09,22,03,01,8.20
2016,09,22,03,02,8.20
2016,09,22,03,03,8.20
2016,09,22,03,04,8.20
2016,09,22,03,05,8.20
2016,09,22,03,06,8.20
2016,09,22,03,07,8.20
2016,09,22,03,08,8.20
2016,09,22,03,09,8.20
2016,09,22,03,10,8.20
2016,09,22,03,11,8.20
2016,09,22,03,12,8.10
2016,09,22,03,13,8.10
2016,09,22,03,14,8.10
2016,09,22,03,15,8.10
2016,09,22,03,16,8.10
2016,09,22,03,17,8.10
2016,09,22,03,18,8.10
2016,09,22,03,19,8.10
2016,09,22,03,20,8.10
2016,09,22,03,21,8.10
2016,09,22,03,22,8.10
2016,09,22,03,23,8.00
2016,09,22,03,24,8.00
2016,09,22,03,25,8.00
2016,09,22,03,26,8.00
2016,09,22,03,27,7.90
2016,09,22,03,28,7.90
2016,09,22,03,29,7.90
2016,09,22,03,30,7.90
2016,09,22,03,31,7.90
2016,09,22,03,32,7.90
2016,09,22,03,33,7.90
2016,09,22,03,34,7.90
2016,09,22,03,35,7.90
2016,09,22,03,36,7.90
2016,09,22,03,37,7.90
2016,09,22,03,38,7.90
2016,09,22,03,39,7.80
2016,09,22,03,40,7.80
2016,09,22,03,41,7.80
2016,09,22,03,42,7.80
2016,09,22,03,43,7.80
2016,09,22,03,44,7.80
2016,09,22,03,45,7.70
2016,09,22,03,46,7.70
2016,09,22,03,47,7.80
2016,09,22,03,48,7.80
2016,09,22,03,49,7.80
2016,09,22,03,50,7.80
2016,09,22,03,51,7.80
2016,09,22,03,52,7.80
2016,09,22,03,53,7.70
2016,09,22,03,54,7.70
2016,09,22,03,55,7.70
2016,09,22,03,56,7.70
2016,09,22,03,57,7.60
2016,09,22,03,58,7.50
2016,09,22,03,59,7.50
2016,09,22,04,00,7.50
2016,09,22,04,01,7.50
2016,09,22,04,02,7.50
2016,09,22,04,03,7.50
2016,09,22,04,04,7.50
2016,09,22,04,05,7.50
2016,09,22,04,06,7.50
2016,09,22,04,07,7.50
2016,09,22,04,08,7.50
2016,09,22,04,09,7.50
2016,09,22,04,10,7.60
2016,09,22,04,11,7.60
2016,09,22,04,12,7.60
2016,09,22,04,13,7.60
2016,09,22,04,14,7.50
2016,09,22,04,15,7.50
2016,09,22,04,16,7.50
2016,09,22,04,17,7.50
2016,09,22,04,18,7.50
2016,09,22,04,19,7.50
2016,09,22,04,20,7.50
2016,09,22,04,21,7.40
2016,09,22,04,22,7.40
2016,09,22,04,23,7.40
2016,09,22,04,24,7.40
2016,09,22,04,25,7.40
2016,09,22,04,26,7.40
2016,09,22,04,27,7.40
2016,09,22,04,28,7.40
2016,09,22,04,29,7.40
2016,09,22,04,30,7.40
2016,09,22,04,31,7.40
2016,09,22,04,32,7.30
2016,09,22,04,33,7.30
2016,09,22,04,34,7.30
2016,09,22,04,35,7.30
2016,09,22,04,36,7.30
2016,09,22,04,37,7.30
2016,09,22,04,38,7.30
2016,09,22,04,39,7.30
2016,09,22,04,40,7.30
2016,09,22,04,41,7.30
2016,09,22,04,42,7.30
2016,09,22,04,43,7.30
2016,09,22,04,44,7.30
2016,09,22,04,45,7.30
2016,09,22,04,46,7.30
2016,09,22,04,47,7.30
2016,09,22,04,48,7.30
2016,09,22,04,49,7.30
2016,09,22,04,50,7.30
2016,09,22,04,51,7.30
2016,09,22,04,52,7.30
2016,09,22,04,53,7.30
2016,09,22,04,54,7.20
2016,09,22,04,55,7.20
2016,09,22,04,56,7.20
2016,09,22,04,57,7.10
2016,09,22,04,58,7.10
2016,09,22,04,59,7.10
2016,09,22,05,00,7.10
2016,09,22,05,01,7.10
2016,09,22,05,02,7.00
2016,09,22,05,03,7.00
2016,09,22,05,04,7.00
2016,09,22,05,05,6.90
2016,09,22,05,06,6.90
2016,09,22,05,07,6.90
2016,09,22,05,08,6.90
2016,09,22,05,09,6.90
2016,09,22,05,10,7.00
2016,09,22,05,11,7.00
2016,09,22,05,12,7.00
2016,09,22,05,13,7.00
2016,09,22,05,14,7.00
2016,09,22,05,15,7.10
2016,09,22,05,16,7.00
2016,09,22,05,17,7.00
2016,09,22,05,18,7.00
2016,09,22,05,19,6.90
2016,09,22,05,20,6.90
2016,09,22,05,21,6.90
2016,09,22,05,22,6.80
2016,09,22,05,23,6.80
2016,09,22,05,24,6.80
2016,09,22,05,25,6.80
2016,09,22,05,26,6.80
2016,09,22,05,27,6.80
2016,09,22,05,28,6.80
2016,09,22,05,29,6.80
2016,09,22,05,30,6.80
2016,09,22,05,31,6.80
2016,09,22,05,32,6.80
2016,09,22,05,33,6.80
2016,09,22,05,34,6.80
2016,09,22,05,35,6.80
2016,09,22,05,36,6.70
2016,09,22,05,37,6.70
2016,09,22,05,38,6.70
2016,09,22,05,39,6.70
2016,09,22,05,40,6.70
2016,09,22,05,41,6.70
2016,09,22,05,42,6.70
2016,09,22,05,43,6.70
2016,09,22,05,44,6.70
2016,09,22,05,45,6.70
2016,09,22,05,46,6.70
2016,09,22,05,47,6.80
2016,09,22,05,48,6.80
2016,09,22,05,49,6.80
2016,09,22,05,50,6.80
2016,09,22,05,51,6.70
2016,09,22,05,52,6.70
2016,09,22,05,53,6.70
2016,09,22,05,54,6.70
2016,09,22,05,55,6.70
2016,09,22,05,56,6.70
2016,09,22,05,57,6.70
2016,09,22,05,58,6.70
2016,09,22,05,59,6.70
2016,09,22,06,00,6.70
2016,09,22,06,01,6.70
2016,09,22,06,02,6.70
2016,09,22,06,03,6.60
2016,09,22,06,04,6.60
2016,09,22,06,05,6.60
2016,09,22,06,06,6.60
2016,09,22,06,07,6.50
2016,09,22,06,08,6.50
2016,09,22,06,09,6.50
2016,09,22,06,10,6.50
2016,09,22,06,11,6.60
2016,09,22,06,12,6.60
2016,09,22,06,13,6.60
2016,09,22,06,14,6.60
2016,09,22,06,15,6.60
2016,09,22,06,16,6.60
2016,09,22,06,17,6.60
2016,09,22,06,18,6.60
2016,09,22,06,19,6.60
2016,09,22,06,20,6.60
2016,09,22,06,21,6.60
2016,09,22,06,22,6.60
2016,09,22,06,23,6.60
2016,09,22,06,24,6.60
2016,09,22,06,25,6.60
2016,09,22,06,26,6.60
2016,09,22,06,27,6.60
2016,09,22,06,28,6.60
2016,09,22,06,29,6.60
2016,09,22,06,30,6.60
2016,09,22,06,31,6.60
2016,09,22,06,32,6.50
2016,09,22,06,33,6.50
2016,09,22,06,34,6.40
2016,09,22,06,35,6.40
2016,09,22,06,36,6.40
2016,09,22,06,37,6.40
2016,09,22,06,38,6.30
2016,09,22,06,39,6.40
2016,09,22,06,40,6.30
2016,09,22,06,41,6.30
2016,09,22,06,42,6.40
2016,09,22,06,43,6.40
2016,09,22,06,44,6.40
2016,09,22,06,45,6.40
2016,09,22,06,46,6.40
2016,09,22,06,47,6.40
2016,09,22,06,48,6.50
2016,09,22,06,49,6.50
2016,09,22,06,50,6.50
2016,09,22,06,51,6.60
2016,09,22,06,52,6.60
2016,09,22,06,53,6.60
2016,09,22,06,54,6.60
2016,09,22,06,55,6.60
2016,09,22,06,56,6.60
2016,09,22,06,57,6.70
2016,09,22,06,58,6.70
2016,09,22,06,59,6.70
2016,09,22,07,00,6.70
2016,09,22,07,01,6.70
2016,09,22,07,02,6.70
2016,09,22,07,03,6.70
2016,09,22,07,04,6.70
2016,09,22,07,05,6.70
2016,09,22,07,06,6.60
2016,09,22,07,07,6.60
2016,09,22,07,08,6.50
2016,09,22,07,09,6.50
2016,09,22,07,10,6.50
2016,09,22,07,11,6.40
2016,09,22,07,12,6.40
2016,09,22,07,13,6.40
2016,09,22,07,14,6.40
2016,09,22,07,15,6.30
2016,09,22,07,16,6.30
2016,09,22,07,17,6.30
2016,09,22,07,18,6.30
2016,09,22,07,19,6.30
2016,09,22,07,20,6.30
2016,09,22,07,21,6.40
2016,09,22,07,22,6.40
2016,09,22,07,23,6.40
2016,09,22,07,24,6.50
2016,09,22,07,25,6.50
2016,09,22,07,26,6.50
2016,09,22,07,27,6.60
2016,09,22,07,28,6.60
2016,09,22,07,29,6.70
2016,09,22,07,30,6.70
2016,09,22,07,31,6.70
2016,09,22,07,32,6.70
2016,09,22,07,33,6.80
2016,09,22,07,34,6.80
2016,09,22,07,35,6.80
2016,09,22,07,36,6.90
2016,09,22,07,37,6.90
2016,09,22,07,38,7.00
2016,09,22,07,39,7.10
2016,09,22,07,40,7.10
2016,09,22,07,41,7.20
2016,09,22,07,42,7.20
2016,09,22,07,43,7.30
2016,09,22,07,44,7.30
2016,09,22,07,45,7.30
2016,09,22,07,46,7.40
2016,09,22,07,47,7.40
2016,09,22,07,48,7.40
2016,09,22,07,49,7.40
2016,09,22,07,50,7.40
2016,09,22,07,51,7.40
2016,09,22,07,52,7.40
2016,09,22,07,53,7.50
2016,09,22,07,54,7.50
2016,09,22,07,55,7.60
2016,09,22,07,56,7.70
2016,09,22,07,57,7.70
2016,09,22,07,58,7.80
2016,09,22,07,59,7.80
2016,09,22,08,00,7.80
2016,09,22,08,01,7.90
2016,09,22,08,02,7.90
2016,09,22,08,03,7.90
2016,09,22,08,04,8.00
2016,09,22,08,05,8.00
2016,09,22,08,06,8.00
2016,09,22,08,07,8.10
2016,09,22,08,08,8.10
2016,09,22,08,09,8.10
2016,09,22,08,10,8.20
2016,09,22,08,11,8.20
2016,09,22,08,12,8.20
2016,09,22,08,13,8.20
2016,09,22,08,14,8.30
2016,09,22,08,15,8.30
2016,09,22,08,16,8.30
2016,09,22,08,17,8.40
2016,09,22,08,18,8.50
2016,09,22,08,19,8.60
2016,09,22,08,20,8.70
2016,09,22,08,21,8.80
2016,09,22,08,22,8.80
2016,09,22,08,23,8.90
2016,09,22,08,24,9.00
2016,09,22,08,25,9.10
2016,09,22,08,26,9.10
2016,09,22,08,27,9.20
2016,09,22,08,28,9.20
2016,09,22,08,29,9.20
2016,09,22,08,30,9.20
2016,09,22,08,31,9.30
2016,09,22,08,32,9.30
2016,09,22,08,33,9.30
2016,09,22,08,34,9.40
2016,09,22,08,35,9.40
2016,09,22,08,36,9.40
2016,09,22,08,37,9.40
2016,09,22,08,38,9.50
2016,09,22,08,39,9.50
2016,09,22,08,40,9.50
2016,09,22,08,41,9.60
2016,09,22,08,42,9.60
2016,09,22,08,43,9.60
2016,09,22,08,44,9.70
2016,09,22,08,45,9.70
2016,09,22,08,46,9.80
2016,09,22,08,47,9.80
2016,09,22,08,48,9.90
2016,09,22,08,49,10.00
2016,09,22,08,50,10.10
2016,09,22,08,51,10.30
2016,09,22,08,52,10.40
2016,09,22,08,53,10.50
2016,09,22,08,54,10.60
2016,09,22,08,55,10.80
2016,09,22,08,56,10.90
2016,09,22,08,57,11.00
2016,09,22,08,58,11.20
2016,09,22,08,59,11.30
2016,09,22,09,00,11.40
2016,09,22,09,01,11.50
2016,09,22,09,02,11.60
2016,09,22,09,03,11.70
2016,09,22,09,04,11.90
2016,09,22,09,05,12.00
2016,09,22,09,06,12.10
2016,09,22,09,07,12.20
2016,09,22,09,08,12.30
2016,09,22,09,09,12.50
2016,09,22,09,10,12.60
2016,09,22,09,11,12.70
2016,09,22,09,12,12.90
2016,09,22,09,13,13.00
2016,09,22,09,14,13.10
2016,09,22,09,15,13.30
2016,09,22,09,16,13.40
2016,09,22,09,17,13.50
2016,09,22,09,18,13.60
2016,09,22,09,19,13.70
2016,09,22,09,20,13.80
2016,09,22,09,21,13.90
2016,09,22,09,22,14.00
2016,09,22,09,23,14.10
2016,09,22,09,24,14.20
2016,09,22,09,25,14.40
2016,09,22,09,26,14.50
2016,09,22,09,27,14.50
2016,09,22,09,28,14.60
2016,09,22,09,29,14.70
2016,09,22,09,30,14.80
2016,09,22,09,31,14.80
2016,09,22,09,32,14.90
2016,09,22,09,33,14.90
2016,09,22,09,34,15.00
2016,09,22,09,35,15.00
2016,09,22,09,36,15.10
2016,09,22,09,37,15.10
2016,09,22,09,38,15.20
2016,09,22,09,39,15.20
2016,09,22,09,40,15.30
2016,09,22,09,41,15.30
2016,09,22,09,42,15.30
2016,09,22,09,43,15.40
2016,09,22,09,44,15.40
2016,09,22,09,45,15.50
2016,09,22,09,46,15.60
2016,09,22,09,47,15.70
2016,09,22,09,48,15.70
2016,09,22,09,49,15.80
2016,09,22,09,50,15.80
2016,09,22,09,51,15.80
2016,09,22,09,52,15.90
2016,09,22,09,53,15.90
2016,09,22,09,54,16.00
2016,09,22,09,55,16.00
2016,09,22,09,56,16.10
2016,09,22,09,57,16.10
2016,09,22,09,58,16.10
2016,09,22,09,59,16.20
2016,09,22,10,00,16.30
2016,09,22,10,01,16.30
2016,09,22,10,02,16.20
2016,09,22,10,03,16.20
2016,09,22,10,04,16.20
2016,09,22,10,05,16.20
2016,09,22,10,06,16.20
2016,09,22,10,07,16.20
2016,09,22,10,08,16.20
2016,09,22,10,09,16.30
2016,09,22,10,10,16.30
2016,09,22,10,11,16.30
2016,09,22,10,12,16.30
2016,09,22,10,13,16.30
2016,09,22,10,14,16.30
2016,09,22,10,15,16.30
2016,09,22,10,16,16.40
2016,09,22,10,17,16.50
2016,09,22,10,18,16.60
2016,09,22,10,19,16.60
2016,09,22,10,20,16.60
2016,09,22,10,21,16.60
2016,09,22,10,22,16.60
2016,09,22,10,23,16.60
2016,09,22,10,24,16.60
2016,09,22,10,25,16.60
2016,09,22,10,26,16.70
2016,09,22,10,27,16.70
2016,09,22,10,28,16.80
2016,09,22,10,29,16.80
2016,09,22,10,30,16.80
2016,09,22,10,31,16.80
2016,09,22,10,32,16.70
2016,09,22,10,33,16.70
2016,09,22,10,34,16.70
2016,09,22,10,35,16.70
2016,09,22,10,36,16.70
2016,09,22,10,37,16.80
2016,09,22,10,38,16.80
2016,09,22,10,39,16.80
2016,09,22,10,40,16.80
2016,09,22,10,41,16.80
2016,09,22,10,42,16.80
2016,09,22,10,43,16.80
2016,09,22,10,44,16.80
2016,09,22,10,45,16.80
2016,09,22,10,46,16.80
2016,09,22,10,47,16.90
2016,09,22,10,48,16.90
2016,09,22,10,49,16.90
2016,09,22,10,50,16.80
2016,09,22,10,51,16.70
2016,09,22,10,52,16.60
2016,09,22,10,53,16.60
2016,09,22,10,54,16.60
2016,09,22,10,55,16.60
2016,09,22,10,56,16.60
2016,09,22,10,57,16.60
2016,09,22,10,58,16.60
2016,09,22,10,59,16.60
2016,09,22,11,00,16.60
2016,09,22,11,01,16.50
2016,09,22,11,02,16.40
2016,09,22,11,03,16.40
2016,09,22,11,04,16.30
2016,09,22,11,05,16.30
2016,09,22,11,06,16.30
2016,09,22,11,07,16.30
2016,09,22,11,08,16.30
2016,09,22,11,09,16.20
2016,09,22,11,10,16.20
2016,09,22,11,11,16.30
2016,09,22,11,12,16.30
2016,09,22,11,13,16.30
2016,09,22,11,14,16.30
2016,09,22,11,15,16.30
2016,09,22,11,16,16.30
2016,09,22,11,17,16.30
2016,09,22,11,18,16.30
2016,09,22,11,19,16.30
2016,09,22,11,20,16.30
2016,09,22,11,21,16.20
2016,09,22,11,22,16.20
2016,09,22,11,23,16.20
2016,09,22,11,24,16.20
2016,09,22,11,25,16.30
2016,09,22,11,26,16.40
2016,09,22,11,27,16.40
2016,09,22,11,28,16.40
2016,09,22,11,29,16.40
2016,09,22,11,30,16.50
2016,09,22,11,31,16.40
2016,09,22,11,32,16.40
2016,09,22,11,33,16.40
2016,09,22,11,34,16.40
2016,09,22,11,35,16.40
2016,09,22,11,36,16.40
2016,09,22,11,37,16.40
2016,09,22,11,38,16.50
2016,09,22,11,39,16.50
2016,09,22,11,40,16.60
2016,09,22,11,41,16.70
2016,09,22,11,42,16.80
2016,09,22,11,43,16.90
2016,09,22,11,44,16.90
2016,09,22,11,45,16.90
2016,09,22,11,46,17.00
2016,09,22,11,47,17.10
2016,09,22,11,48,17.10
2016,09,22,11,49,17.00
2016,09,22,11,50,17.00
2016,09,22,11,51,17.00
2016,09,22,11,52,17.00
2016,09,22,11,53,17.00
2016,09,22,11,54,17.00
2016,09,22,11,55,17.00
2016,09,22,11,56,17.10
2016,09,22,11,57,17.10
2016,09,22,11,58,17.10
2016,09,22,11,59,17.10
2016,09,22,12,00,17.10
2016,09,22,12,01,17.10
2016,09,22,12,02,17.10
2016,09,22,12,03,17.10
2016,09,22,12,04,17.20
2016,09,22,12,05,17.20
2016,09,22,12,06,17.20
2016,09,22,12,07,17.20
2016,09,22,12,08,17.20
2016,09,22,12,09,17.30
2016,09,22,12,10,17.20
2016,09,22,12,11,17.20
2016,09,22,12,12,17.20
2016,09,22,12,13,17.30
2016,09,22,12,14,17.20
2016,09,22,12,15,17.20
2016,09,22,12,16,17.20
2016,09,22,12,17,17.30
2016,09,22,12,18,17.40
2016,09,22,12,19,17.40
2016,09,22,12,20,17.40
2016,09,22,12,21,17.40
2016,09,22,12,22,17.40
2016,09,22,12,23,17.40
2016,09,22,12,24,17.40
2016,09,22,12,25,17.50
2016,09,22,12,26,17.50
2016,09,22,12,27,17.50
2016,09,22,12,28,17.60
2016,09,22,12,29,17.60
2016,09,22,12,30,17.60
2016,09,22,12,31,17.60
2016,09,22,12,32,17.60
2016,09,22,12,33,17.60
2016,09,22,12,34,17.60
2016,09,22,12,35,17.60
2016,09,22,12,36,17.60
2016,09,22,12,37,17.60
2016,09,22,12,38,17.70
2016,09,22,12,39,17.70
2016,09,22,12,40,17.70
2016,09,22,12,41,17.70
2016,09,22,12,42,17.80
2016,09,22,12,43,17.80
2016,09,22,12,44,17.90
2016,09,22,12,45,17.90
2016,09,22,12,46,17.90
2016,09,22,12,47,17.80
2016,09,22,12,48,17.80
2016,09,22,12,49,17.90
2016,09,22,12,50,17.90
2016,09,22,12,51,17.90
2016,09,22,12,52,18.00
2016,09,22,12,53,18.00
2016,09,22,12,54,18.00
2016,09,22,12,55,17.90
2016,09,22,12,56,17.90
2016,09,22,12,57,17.90
2016,09,22,12,58,17.90
2016,09,22,12,59,17.80
2016,09,22,13,00,17.80
2016,09,22,13,01,17.70
2016,09,22,13,02,17.60
2016,09,22,13,03,17.60
2016,09,22,13,04,17.50
2016,09,22,13,05,17.50
2016,09,22,13,06,17.50
2016,09,22,13,07,17.50
2016,09,22,13,08,17.50
2016,09,22,13,09,17.50
2016,09,22,13,10,17.40
2016,09,22,13,11,17.40
2016,09,22,13,12,17.40
2016,09,22,13,13,17.40
2016,09,22,13,14,17.40
2016,09,22,13,15,17.40
2016,09,22,13,16,17.40
2016,09,22,13,17,17.40
2016,09,22,13,18,17.40
2016,09,22,13,19,17.40
2016,09,22,13,20,17.40
2016,09,22,13,21,17.40
2016,09,22,13,22,17.40
2016,09,22,13,23,17.40
2016,09,22,13,24,17.50
2016,09,22,13,25,17.50
2016,09,22,13,26,17.50
2016,09,22,13,27,17.40
2016,09,22,13,28,17.40
2016,09,22,13,29,17.40
2016,09,22,13,30,17.40
2016,09,22,13,31,17.50
2016,09,22,13,32,17.50
2016,09,22,13,33,17.50
2016,09,22,13,34,17.50
2016,09,22,13,35,17.50
2016,09,22,13,36,17.50
2016,09,22,13,37,17.60
2016,09,22,13,38,17.70
2016,09,22,13,39,17.70
2016,09,22,13,40,17.80
2016,09,22,13,41,17.80
2016,09,22,13,42,17.90
2016,09,22,13,43,17.90
2016,09,22,13,44,17.90
2016,09,22,13,45,17.90
2016,09,22,13,46,18.00
2016,09,22,13,47,18.00
2016,09,22,13,48,18.00
2016,09,22,13,49,18.00
2016,09,22,13,50,18.00
2016,09,22,13,51,18.00
2016,09,22,13,52,17.90
2016,09,22,13,53,17.90
2016,09,22,13,54,17.90
2016,09,22,13,55,17.90
2016,09,22,13,56,17.90
2016,09,22,13,57,17.90
2016,09,22,13,58,17.90
2016,09,22,13,59,17.90
2016,09,22,14,00,17.90
2016,09,22,14,01,18.00
2016,09,22,14,02,18.00
2016,09,22,14,03,18.10
2016,09,22,14,04,18.10
2016,09,22,14,05,18.20
2016,09,22,14,06,18.20
2016,09,22,14,07,18.20
2016,09,22,14,08,18.30
2016,09,22,14,09,18.30
2016,09,22,14,10,18.40
2016,09,22,14,11,18.50
2016,09,22,14,12,18.50
2016,09,22,14,13,18.50
2016,09,22,14,14,18.50
2016,09,22,14,15,18.60
2016,09,22,14,16,18.60
2016,09,22,14,17,18.70
2016,09,22,14,18,18.70
2016,09,22,14,19,18.70
2016,09,22,14,20,18.60
2016,09,22,14,21,18.60
2016,09,22,14,22,18.60
2016,09,22,14,23,18.60
2016,09,22,14,24,18.50
2016,09,22,14,25,18.50
2016,09,22,14,26,18.50
2016,09,22,14,27,18.50
2016,09,22,14,28,18.60
2016,09,22,14,29,18.70
2016,09,22,14,30,18.80
2016,09,22,14,31,18.80
2016,09,22,14,32,18.90
2016,09,22,14,33,18.90
2016,09,22,14,34,19.00
2016,09,22,14,35,19.00
2016,09,22,14,36,19.10
2016,09,22,14,37,19.20
2016,09,22,14,38,19.20
2016,09,22,14,39,19.30
2016,09,22,14,40,19.30
2016,09,22,14,41,19.30
2016,09,22,14,42,19.30
2016,09,22,14,43,19.30
2016,09,22,14,44,19.30
2016,09,22,14,45,19.40
2016,09,22,14,46,19.40
2016,09,22,14,47,19.50
2016,09,22,14,48,19.50
2016,09,22,14,49,19.40
2016,09,22,14,50,19.40
2016,09,22,14,51,19.40
2016,09,22,14,52,19.40
2016,09,22,14,53,19.40
2016,09,22,14,54,19.40
2016,09,22,14,55,19.40
2016,09,22,14,56,19.40
2016,09,22,14,57,19.30
2016,09,22,14,58,19.30
2016,09,22,14,59,19.30
2016,09,22,15,00,19.30
2016,09,22,15,01,19.30
2016,09,22,15,02,19.30
2016,09,22,15,03,19.30
2016,09,22,15,04,19.30
2016,09,22,15,05,19.30
2016,09,22,15,06,19.30
2016,09,22,15,07,19.20
2016,09,22,15,08,19.30
2016,09,22,15,09,19.30
2016,09,22,15,10,19.30
2016,09,22,15,11,19.30
2016,09,22,15,12,19.30
2016,09,22,15,13,19.30
2016,09,22,15,14,19.40
2016,09,22,15,15,19.40
2016,09,22,15,16,19.40
2016,09,22,15,17,19.40
2016,09,22,15,18,19.50
2016,09,22,15,19,19.50
2016,09,22,15,20,19.50
2016,09,22,15,21,19.50
2016,09,22,15,22,19.60
2016,09,22,15,23,19.60
2016,09,22,15,24,19.60
2016,09,22,15,25,19.60
2016,09,22,15,26,19.60
2016,09,22,15,27,19.60
2016,09,22,15,28,19.50
2016,09,22,15,29,19.50
2016,09,22,15,30,19.40
2016,09,22,15,31,19.40
2016,09,22,15,32,19.30
2016,09,22,15,33,19.20
2016,09,22,15,34,19.10
2016,09,22,15,35,19.00
2016,09,22,15,36,18.90
2016,09,22,15,37,18.80
2016,09,22,15,38,18.70
2016,09,22,15,39,18.60
2016,09,22,15,40,18.50
2016,09,22,15,41,18.50
2016,09,22,15,42,18.40
2016,09,22,15,43,18.30
2016,09,22,15,44,18.30
2016,09,22,15,45,18.20
2016,09,22,15,46,18.20
2016,09,22,15,47,18.00
2016,09,22,15,48,17.90
2016,09,22,15,49,17.90
2016,09,22,15,50,17.80
2016,09,22,15,51,17.80
2016,09,22,15,52,17.80
2016,09,22,15,53,17.80
2016,09,22,15,54,17.80
2016,09,22,15,55,17.80
2016,09,22,15,56,17.80
2016,09,22,15,57,17.80
2016,09,22,15,58,17.90
2016,09,22,15,59,17.90
2016,09,22,16,00,17.90
2016,09,22,16,01,17.90
2016,09,22,16,02,17.90
2016,09,22,16,03,17.90
2016,09,22,16,04,18.00
2016,09,22,16,05,18.00
2016,09,22,16,06,18.00
2016,09,22,16,07,18.10
2016,09,22,16,08,18.10
2016,09,22,16,09,18.10
2016,09,22,16,10,18.20
2016,09,22,16,11,18.20
2016,09,22,16,12,18.20
2016,09,22,16,13,18.20
2016,09,22,16,14,18.20
2016,09,22,16,15,18.20
2016,09,22,16,16,18.20
2016,09,22,16,17,18.20
2016,09,22,16,18,18.20
2016,09,22,16,19,18.20
2016,09,22,16,20,18.20
2016,09,22,16,21,18.20
2016,09,22,16,22,18.20
2016,09,22,16,23,18.20
2016,09,22,16,24,18.20
2016,09,22,16,25,18.20
2016,09,22,16,26,18.20
2016,09,22,16,27,18.20
2016,09,22,16,28,18.20
2016,09,22,16,29,18.20
2016,09,22,16,30,18.20
2016,09,22,16,31,18.20
2016,09,22,16,32,18.10
2016,09,22,16,33,18.10
2016,09,22,16,34,18.10
2016,09,22,16,35,18.10
2016,09,22,16,36,18.10
2016,09,22,16,37,18.10
2016,09,22,16,38,18.10
2016,09,22,16,39,18.00
2016,09,22,16,40,18.00
2016,09,22,16,41,18.00
2016,09,22,16,42,17.90
2016,09,22,16,43,17.90
2016,09,22,16,44,17.90
2016,09,22,16,45,17.90
2016,09,22,16,46,17.90
2016,09,22,16,47,17.90
2016,09,22,16,48,17.90
2016,09,22,16,49,17.90
2016,09,22,16,50,17.80
2016,09,22,16,51,17.80
2016,09,22,16,52,17.80
2016,09,22,16,53,17.80
2016,09,22,16,54,17.80
2016,09,22,16,55,17.80
2016,09,22,16,56,17.80
2016,09,22,16,57,17.80
2016,09,22,16,58,17.80
2016,09,22,16,59,17.80
2016,09,22,17,00,17.80
2016,09,22,17,01,17.80
2016,09,22,17,02,17.90
2016,09,22,17,03,17.90
2016,09,22,17,04,17.90
2016,09,22,17,05,17.90
2016,09,22,17,06,17.80
2016,09,22,17,07,17.80
2016,09,22,17,08,17.80
2016,09,22,17,09,17.80
2016,09,22,17,10,17.80
2016,09,22,17,11,17.80
2016,09,22,17,12,17.80
2016,09,22,17,13,17.70
2016,09,22,17,14,17.70
2016,09,22,17,15,17.70
2016,09,22,17,16,17.70
2016,09,22,17,17,17.60
2016,09,22,17,18,17.60
2016,09,22,17,19,17.60
2016,09,22,17,20,17.60
2016,09,22,17,21,17.50
2016,09,22,17,22,17.50
2016,09,22,17,23,17.40
2016,09,22,17,24,17.40
2016,09,22,17,25,17.40
2016,09,22,17,26,17.30
2016,09,22,17,27,17.30
2016,09,22,17,28,17.30
2016,09,22,17,29,17.30
2016,09,22,17,30,17.20
2016,09,22,17,31,17.20
2016,09,22,17,32,17.20
2016,09,22,17,33,17.20
2016,09,22,17,34,17.20
2016,09,22,17,35,17.10
2016,09,22,17,36,17.10
2016,09,22,17,37,17.10
2016,09,22,17,38,17.10
2016,09,22,17,39,17.00
2016,09,22,17,40,17.00
2016,09,22,17,41,17.00
2016,09,22,17,42,16.90